Showing default

DUCHIFAT 1, 40021

Orbit data source: Space-Track

DUCHIFAT 1, 40021 is a payload satellite owned by Herzliya (IL) in SSO that was launched on Thu, 19 Jun 2014 UTC via a DNEPR launch vehicle from the Orenburg, Russia (OREN). Payload-class satellites include a variety of spacecraft equipped with specific instruments for various scientific and technological missions. These include communications satellites like Starlink; space stations such as the ISS; scientific satellites like the Hubble; Earth observation satellites from companies like Planet Labs, Umbra, and HawkEye 360; GPS; miniature CubeSats for education and research; and military/defense satellites.

Loading next visibility...
Identifier
40021, 2014-033M
Orbit
SSO
Country
Flag of ILIL / ISRA
Related business
Manufacturer
Herzliya
Mission
Operational Amateur Technology
Bus & Motor
CUBESAT 1U, Unknown motor
Mass
1 kg wet, 1 kg dry
Launch date (UTC)
2014-06-19 (12 years ago)
Launch vehicle
DNEPR
Launch site
Orenburg, Russia (OREN)
Object type
Payload
Rocket body
Debris
Shape & HBR
Box + 4 Ant, 0.3 m
Radar Cross Section
0.046 m², Medium (>0.1 m² and < 1m²)

Expand to show TLE details & history
Last TLE update: 19 hours ago

TLE from 19 hours ago
0 DUCHIFAT 1
1 40021U 14033M   26253.72110586  .00900060  41707-3  14230-2 0  9995
2 40021  98.0206 326.6786 0007082 249.2070 110.8450 16.03879870669237
Epoch: 2026-09-10T17:18Z
TLE epoch observation values (Epoch: 2026-09-10T17:18:23.546Z)
Latitude
-0.00001°
Longitude
77.32574°
Altitude
268.547 km
Speed
7.745 km/s
True Right ascension
21h 46m 42s
True Declination
0° 00' 00"
Sunlit
Object was in full shadow at epoch
Visualization orbit readout
Latitude
Unknown
Longitude
Unknown
Altitude
Unknown
Speed
Unknown
Apparent Right ascension
Unknown
Apparent Declination
Unknown
Sunlit
N/A
Visualization observer readout
Local Sidereal Time
04:29:23
Azimuth
Unknown
Elevation
Unknown
Doppler factor
Unknown
Orbital elements
Apogee altitude
265.271 km
Perigee altitude
255.868 km
Semi-major axis
6,638.706 km
Eccentricity
0.00071
Inclination
98.0206°
RAAN
326.6786°
Arg. of periapsis
249.207°
True anomaly
110.92082°
Mean anomaly
110.845°
Eccentric anomaly
110.88291°
Mean motion
4.01253 °/min
Orbital period
89.72 mins
BSTAR
0.001423
Loading maneuver chart data...
Computing Atmospheric mass density...
Loading historical data...
Loading historical data...
Loading historical data...
Loading historical data...
Loading historical data...
Loading historical data...
Loading historical data...

Documentation

Showing up to 5 results
|